This is the latest recevied weather packets stored in our database for station/object WP3OF-1. If no packets are shown the sender has not sent any weather packets the latest 10 day(s).
| Time | Temp. | Humidity | Pressure | Rain* | Wind** | Luminosity | Snow |
|---|---|---|---|---|---|---|---|
| 1778084410 | 29.44° C | 70% | 1019.5 hPa | 0 mm | - | - | - |
| 1778084108 | 28.33° C | 73% | 1019.6 hPa | 0 mm | - | - | - |
| 1778083804 | 28.89° C | 73% | 1019.4 hPa | 0 mm | - | - | - |
| 1778083502 | 28.33° C | 75% | 1019.5 hPa | 0 mm | - | - | - |
| 1778083199 | 29.44° C | 69% | 1019.6 hPa | 0 mm | - | - | - |
| 1778082897 | 29.44° C | 72% | 1019.5 hPa | 0 mm | - | - | - |
| 1778081789 | 29.44° C | 70% | 1019.7 hPa | 0 mm | - | - | - |
| 1778081486 | 28.33° C | 72% | 1019.7 hPa | 0 mm | - | - | - |
| 1778081183 | 28.89° C | 72% | 1019.8 hPa | 0 mm | - | - | - |
| 1778080881 | 28.33° C | 73% | 1019.7 hPa | 0 mm | - | - | - |
| 1778080579 | 28.33° C | 70% | 1019.9 hPa | 0 mm | - | - | - |
| 1778080276 | 28.33° C | 72% | 1019.9 hPa | 0 mm | - | - | - |
| 1778079972 | 28.89° C | 73% | 1019.8 hPa | 0 mm | - | - | - |
| 1778079669 | 28.33° C | 73% | 1019.9 hPa | 0 mm | - | - | - |
| 1778079366 | 28.89° C | 71% | 1019.9 hPa | 0 mm | - | - | - |
| 1778079063 | 28.89° C | 73% | 1019.7 hPa | 0 mm | - | - | - |
| 1778078760 | 28.89° C | 74% | 1019.9 hPa | 0 mm | - | - | - |
| 1778078457 | 28.33° C | 74% | 1019.8 hPa | 0 mm | - | - | - |
| 1778078155 | 28.33° C | 73% | 1019.9 hPa | 0 mm | - | - | - |
| 1778077853 | 28.33° C | 74% | 1019.8 hPa | 0 mm | - | - | - |
| 1778077550 | 28.89° C | 72% | 1019.7 hPa | 0 mm | - | - | - |
| 1778077248 | 28.89° C | 71% | 1019.8 hPa | 0 mm | - | - | - |
| 1778076946 | 28.33° C | 72% | 1019.9 hPa | 0 mm | - | - | - |
| 1778076644 | 28.33° C | 72% | 1020.1 hPa | 0 mm | - | - | - |
| 1778076341 | 28.89° C | 70% | 1019.8 hPa | 0 mm | - | - | - |
* Rain latest hour (hover to see other rain measurements)
** Current wind speed in m/s (hover to see current wind gust speed)